OAL417 LGAV-LIRF

Flight info

Callsign OAL417
Flight time 1h 46m
Altitude 40000
Route KOR UL53 IXONI DCT OLGAT DCT TOPNO DCT DOGUS DCT EKTOL DCT AMSOR DCT IPKAM DCT TEA DCT SIPRO DCT LAT
Aircraft A343/H-SDE2E3FGHIJ4J5M1RWXY/LB1D1

Departure

Time 2026-05-06 22:21
Airport Athens Eleftherios Venizelos International Airport (LGAV)

Arrival

Time 2026-05-07 00:07
Airport Rome–Fiumicino Leonardo da Vinci International Airport (LIRF)
Time Latitude Longitude Altitude Speed Heading
2026-05-06 21:03 37.93509 23.94753 308 ft 0 kts 307°
2026-05-06 21:59 37.93508 23.94753 305 ft 1 kts 307°
2026-05-06 22:00 37.93494 23.94777 305 ft 3 kts 307°
2026-05-06 22:00 37.93482 23.94798 309 ft 4 kts 291°
2026-05-06 22:00 37.93478 23.94830 307 ft 4 kts 253°
2026-05-06 22:00 37.93490 23.94856 306 ft 2 kts 218°
2026-05-06 22:01 37.93492 23.94857 306 ft 0 kts 217°
2026-05-06 22:11 37.93488 23.94854 305 ft 2 kts 217°
2026-05-06 22:11 37.93472 23.94838 309 ft 4 kts 217°
2026-05-06 22:11 37.93443 23.94811 307 ft 6 kts 217°
2026-05-06 22:12 37.93403 23.94772 309 ft 8 kts 217°
2026-05-06 22:12 37.93352 23.94723 309 ft 10 kts 217°
2026-05-06 22:12 37.93301 23.94675 308 ft 9 kts 217°
2026-05-06 22:12 37.93247 23.94622 306 ft 11 kts 217°
2026-05-06 22:13 37.93175 23.94594 307 ft 12 kts 183°
2026-05-06 22:13 37.93092 23.94614 307 ft 12 kts 139°
2026-05-06 22:13 37.93063 23.94662 307 ft 1 kts 127°
2026-05-06 22:13 37.93052 23.94676 309 ft 3 kts 140°
2026-05-06 22:14 37.93029 23.94679 308 ft 4 kts 184°
2026-05-06 22:14 37.93001 23.94663 308 ft 5 kts 209°
2026-05-06 22:14 37.92965 23.94632 309 ft 7 kts 216°
2026-05-06 22:14 37.92919 23.94589 308 ft 9 kts 217°
2026-05-06 22:15 37.92866 23.94538 308 ft 10 kts 217°
2026-05-06 22:15 37.92806 23.94480 309 ft 11 kts 217°
2026-05-06 22:15 37.92738 23.94415 309 ft 13 kts 217°
2026-05-06 22:15 37.92663 23.94344 310 ft 14 kts 216°
2026-05-06 22:16 37.92580 23.94267 308 ft 15 kts 216°
2026-05-06 22:16 37.92500 23.94190 311 ft 12 kts 217°
2026-05-06 22:16 37.92446 23.94164 310 ft 8 kts 172°
2026-05-06 22:16 37.92415 23.94213 311 ft 7 kts 102°
2026-05-06 22:17 37.92412 23.94264 311 ft 5 kts 91°
2026-05-06 22:17 37.92411 23.94301 311 ft 3 kts 90°
2026-05-06 22:17 37.92411 23.94329 312 ft 3 kts 90°
2026-05-06 22:17 37.92413 23.94361 313 ft 4 kts 79°
2026-05-06 22:18 37.92428 23.94394 315 ft 5 kts 51°
2026-05-06 22:18 37.92446 23.94414 313 ft 0 kts 38°
2026-05-06 22:20 37.92450 23.94418 316 ft 3 kts 38°
2026-05-06 22:20 37.92518 23.94486 313 ft 26 kts 38°
2026-05-06 22:20 37.92850 23.94800 307 ft 93 kts 36°
2026-05-06 22:20 37.93526 23.95442 288 ft 148 kts 37°
2026-05-06 22:21 37.94445 23.96307 601 ft 166 kts 36°
2026-05-06 22:21 37.95356 23.97187 1331 ft 166 kts 37°
2026-05-06 22:21 37.96325 23.98158 1706 ft 194 kts 39°
2026-05-06 22:21 37.97489 23.99335 2010 ft 232 kts 37°
2026-05-06 22:22 37.98803 24.00572 2876 ft 241 kts 36°
2026-05-06 22:22 38.00174 24.01850 3877 ft 247 kts 36°
2026-05-06 22:22 38.01565 24.03168 4915 ft 252 kts 37°
2026-05-06 22:22 38.02979 24.04519 5902 ft 256 kts 37°
2026-05-06 22:23 38.04413 24.05894 6918 ft 260 kts 37°
2026-05-06 22:23 38.05864 24.07288 7963 ft 261 kts 36°
2026-05-06 22:23 38.07316 24.08689 9024 ft 263 kts 36°
2026-05-06 22:23 38.08637 24.10316 10001 ft 268 kts 52°
2026-05-06 22:24 38.09452 24.12466 10822 ft 276 kts 75°
2026-05-06 22:24 38.09511 24.14922 11644 ft 284 kts 100°
2026-05-06 22:24 38.08757 24.17220 12447 ft 291 kts 126°
2026-05-06 22:24 38.07271 24.18960 13257 ft 295 kts 152°
2026-05-06 22:25 38.05324 24.19746 14058 ft 296 kts 178°
2026-05-06 22:25 38.03294 24.19408 14759 ft 296 kts 204°
2026-05-06 22:25 38.01581 24.18019 15490 ft 293 kts 229°
2026-05-06 22:25 38.00465 24.15888 16233 ft 291 kts 249°
2026-05-06 22:26 37.99671 24.13516 16965 ft 293 kts 252°
2026-05-06 22:26 37.98911 24.11096 17705 ft 296 kts 252°
2026-05-06 22:26 37.98138 24.08661 18423 ft 299 kts 252°
2026-05-06 22:26 37.97347 24.06203 19025 ft 302 kts 251°
2026-05-06 22:27 37.96553 24.03762 19675 ft 304 kts 251°
2026-05-06 22:27 37.95738 24.01272 20275 ft 307 kts 251°
2026-05-06 22:27 37.94913 23.98756 20844 ft 311 kts 251°
2026-05-06 22:27 37.94077 23.96216 21436 ft 314 kts 251°
2026-05-06 22:28 37.93367 23.93574 21803 ft 322 kts 261°
2026-05-06 22:28 37.93176 23.90714 22053 ft 332 kts 277°
2026-05-06 22:28 37.93739 23.87849 22312 ft 342 kts 294°
2026-05-06 22:28 37.94805 23.85091 22589 ft 354 kts 300°
2026-05-06 22:29 37.96109 23.82379 22834 ft 367 kts 303°
2026-05-06 22:29 37.97554 23.79641 23079 ft 379 kts 305°
2026-05-06 22:29 37.99067 23.76842 23370 ft 391 kts 305°
2026-05-06 22:29 38.00596 23.73991 23727 ft 399 kts 304°
2026-05-06 22:30 38.02150 23.71036 24088 ft 406 kts 303°
2026-05-06 22:30 38.03708 23.68019 24565 ft 409 kts 303°
2026-05-06 22:30 38.05259 23.64980 25040 ft 411 kts 303°
2026-05-06 22:30 38.06809 23.61918 25536 ft 414 kts 303°
2026-05-06 22:31 38.08367 23.58833 25993 ft 416 kts 303°
2026-05-06 22:31 38.09932 23.55727 26448 ft 419 kts 303°
2026-05-06 22:31 38.11507 23.52602 26898 ft 421 kts 303°
2026-05-06 22:31 38.13089 23.49459 27356 ft 424 kts 303°
2026-05-06 22:32 38.14681 23.46299 27790 ft 426 kts 303°
2026-05-06 22:32 38.16283 23.43117 28222 ft 428 kts 303°
2026-05-06 22:32 38.17895 23.39913 28604 ft 431 kts 303°
2026-05-06 22:32 38.19517 23.36686 28985 ft 434 kts 303°
2026-05-06 22:33 38.21146 23.33441 29397 ft 436 kts 303°
2026-05-06 22:33 38.22783 23.30175 29812 ft 438 kts 304°
2026-05-06 22:33 38.24424 23.26899 30172 ft 441 kts 304°
2026-05-06 22:33 38.26079 23.23594 30493 ft 443 kts 304°
2026-05-06 22:34 38.27714 23.20323 30810 ft 445 kts 304°
2026-05-06 22:34 38.29375 23.16997 31128 ft 447 kts 304°
2026-05-06 22:34 38.31047 23.13645 31440 ft 448 kts 304°
2026-05-06 22:34 38.32718 23.10292 31789 ft 448 kts 304°
2026-05-06 22:35 38.34385 23.06943 32209 ft 447 kts 304°
2026-05-06 22:35 38.36052 23.03590 32616 ft 446 kts 304°
2026-05-06 22:35 38.37705 23.00261 33107 ft 444 kts 304°
2026-05-06 22:35 38.39355 22.96937 33530 ft 443 kts 304°
2026-05-06 22:36 38.40999 22.93620 33958 ft 441 kts 304°
2026-05-06 22:36 38.42638 22.90312 34321 ft 440 kts 304°
2026-05-06 22:36 38.44270 22.87012 34659 ft 439 kts 304°
2026-05-06 22:36 38.45899 22.83718 34999 ft 438 kts 304°
2026-05-06 22:37 38.47522 22.80430 35310 ft 437 kts 304°
2026-05-06 22:37 38.49142 22.77145 35639 ft 436 kts 303°
2026-05-06 22:37 38.50752 22.73878 36048 ft 433 kts 303°
2026-05-06 22:37 38.52336 22.70662 36359 ft 433 kts 303°
2026-05-06 22:38 38.53937 22.67406 36655 ft 433 kts 303°
2026-05-06 22:38 38.55537 22.64151 36956 ft 432 kts 303°
2026-05-06 22:38 38.57135 22.60894 37288 ft 431 kts 303°
2026-05-06 22:38 38.58729 22.57642 37598 ft 431 kts 303°
2026-05-06 22:39 38.60319 22.54396 37899 ft 430 kts 303°
2026-05-06 22:39 38.61888 22.51190 38201 ft 430 kts 302°
2026-05-06 22:39 38.63473 22.47949 38493 ft 429 kts 302°
2026-05-06 22:39 38.65052 22.44715 38783 ft 428 kts 302°
2026-05-06 22:40 38.66626 22.41489 39063 ft 426 kts 302°
2026-05-06 22:40 38.68195 22.38270 39278 ft 426 kts 302°
2026-05-06 22:40 38.69762 22.35052 39453 ft 426 kts 302°
2026-05-06 22:40 38.71328 22.31832 39633 ft 426 kts 302°
2026-05-06 22:41 38.74443 22.25419 40031 ft 426 kts 302°
2026-05-06 22:41 38.76013 22.22181 40106 ft 428 kts 302°
2026-05-06 22:42 38.79176 22.15647 40111 ft 432 kts 302°
2026-05-06 22:42 38.82336 22.09108 40107 ft 431 kts 302°
2026-05-06 22:43 38.85495 22.02559 40113 ft 431 kts 302°
2026-05-06 22:43 38.88643 21.96016 40106 ft 431 kts 302°
2026-05-06 22:44 38.91261 21.90567 40112 ft 431 kts 302°
2026-05-06 22:44 38.94915 21.82943 40108 ft 431 kts 302°
2026-05-06 22:45 38.97548 21.77440 40117 ft 431 kts 302°
2026-05-06 22:45 39.00673 21.70895 40114 ft 432 kts 302°
2026-05-06 22:46 39.03815 21.64303 40110 ft 432 kts 302°
2026-05-06 22:46 39.06948 21.57713 40114 ft 431 kts 302°
2026-05-06 22:47 39.10079 21.51116 40120 ft 432 kts 302°
2026-05-06 22:47 39.13206 21.44513 40123 ft 432 kts 302°
2026-05-06 22:48 39.16312 21.37939 40117 ft 431 kts 301°
2026-05-06 22:48 39.19429 21.31329 40121 ft 432 kts 301°
2026-05-06 22:49 39.22546 21.24706 40122 ft 432 kts 301°
2026-05-06 22:49 39.25656 21.18082 40125 ft 431 kts 301°
2026-05-06 22:50 39.28748 21.11484 40121 ft 432 kts 301°
2026-05-06 22:50 39.31863 21.04825 40132 ft 433 kts 301°
2026-05-06 22:51 39.34974 20.98158 40132 ft 433 kts 301°
2026-05-06 22:51 39.38084 20.91482 40134 ft 433 kts 301°
2026-05-06 22:52 39.41190 20.84800 40134 ft 433 kts 301°
2026-05-06 22:52 39.44276 20.78147 40134 ft 433 kts 301°
2026-05-06 22:53 39.47372 20.71457 40140 ft 433 kts 300°
2026-05-06 22:53 39.50459 20.64772 40139 ft 432 kts 300°
2026-05-06 22:54 39.53545 20.58075 40137 ft 432 kts 300°
2026-05-06 22:54 39.56620 20.51385 40138 ft 432 kts 300°
2026-05-06 22:55 39.59689 20.44695 40129 ft 433 kts 300°
2026-05-06 22:55 39.62769 20.37964 40129 ft 435 kts 300°
2026-05-06 22:56 39.65855 20.31206 40117 ft 435 kts 300°
2026-05-06 22:56 39.68937 20.24444 40116 ft 435 kts 300°
2026-05-06 22:57 39.72011 20.17686 40111 ft 435 kts 300°
2026-05-06 22:57 39.75083 20.10918 40108 ft 434 kts 299°
2026-05-06 22:58 39.78142 20.04166 40104 ft 433 kts 299°
2026-05-06 22:58 39.81189 19.97422 40102 ft 432 kts 299°
2026-05-06 22:59 39.84217 19.90708 40095 ft 429 kts 299°
2026-05-06 22:59 39.87233 19.84003 40095 ft 429 kts 299°
2026-05-06 23:00 39.90229 19.77330 40089 ft 429 kts 299°
2026-05-06 23:00 39.93248 19.70597 40092 ft 430 kts 299°
2026-05-06 23:01 39.96258 19.63862 40087 ft 430 kts 298°
2026-05-06 23:01 39.99265 19.57118 40088 ft 430 kts 298°
2026-05-06 23:02 40.02271 19.50364 40083 ft 430 kts 298°
2026-05-06 23:02 40.05273 19.43605 40081 ft 431 kts 298°
2026-05-06 23:03 40.08276 19.36830 40078 ft 431 kts 298°
2026-05-06 23:03 40.11276 19.30045 40080 ft 432 kts 298°
2026-05-06 23:04 40.14260 19.23282 40075 ft 432 kts 298°
2026-05-06 23:04 40.17255 19.16480 40078 ft 431 kts 298°
2026-05-06 23:05 40.20245 19.09673 40081 ft 431 kts 298°
2026-05-06 23:05 40.23223 19.02870 40077 ft 431 kts 297°
2026-05-06 23:06 40.25584 18.95694 40076 ft 429 kts 288°
2026-05-06 23:06 40.27537 18.88359 40076 ft 429 kts 287°
2026-05-06 23:07 40.29428 18.80950 40077 ft 429 kts 287°
2026-05-06 23:07 40.31317 18.73535 40079 ft 429 kts 287°
2026-05-06 23:08 40.33221 18.66089 40078 ft 430 kts 287°
2026-05-06 23:08 40.35111 18.58694 40077 ft 430 kts 287°
2026-05-06 23:09 40.37010 18.51252 40075 ft 430 kts 287°
2026-05-06 23:09 40.38902 18.43810 40074 ft 430 kts 287°
2026-05-06 23:10 40.40790 18.36358 40073 ft 431 kts 286°
2026-05-06 23:10 40.42676 18.28890 40074 ft 431 kts 286°
2026-05-06 23:11 40.44555 18.21421 40075 ft 431 kts 286°
2026-05-06 23:11 40.46431 18.13942 40073 ft 431 kts 286°
2026-05-06 23:12 40.48301 18.06461 40059 ft 431 kts 286°
2026-05-06 23:12 40.50153 17.99030 40054 ft 431 kts 286°
2026-05-06 23:13 40.52013 17.91543 40035 ft 431 kts 286°
2026-05-06 23:13 40.53868 17.84053 40051 ft 431 kts 286°
2026-05-06 23:14 40.55718 17.76566 40069 ft 431 kts 286°
2026-05-06 23:14 40.57566 17.69061 40061 ft 431 kts 285°
2026-05-06 23:15 40.59407 17.61559 40059 ft 431 kts 285°
2026-05-06 23:15 40.61243 17.54051 40057 ft 431 kts 285°
2026-05-06 23:16 40.63062 17.46593 40061 ft 431 kts 285°
2026-05-06 23:16 40.64888 17.39081 40062 ft 431 kts 285°
2026-05-06 23:17 40.66708 17.31571 40053 ft 430 kts 285°
2026-05-06 23:17 40.68522 17.24059 40055 ft 430 kts 285°
2026-05-06 23:18 40.70335 17.16528 40048 ft 431 kts 285°
2026-05-06 23:18 40.72140 17.09007 40048 ft 431 kts 285°
2026-05-06 23:19 40.73942 17.01470 40053 ft 431 kts 284°
2026-05-06 23:19 40.75742 16.93920 40048 ft 432 kts 284°
2026-05-06 23:20 40.77531 16.86391 40047 ft 432 kts 284°
2026-05-06 23:20 40.79329 16.78801 40027 ft 432 kts 284°
2026-05-06 23:21 40.81116 16.71229 40003 ft 432 kts 284°
2026-05-06 23:21 40.82900 16.63648 40002 ft 432 kts 284°
2026-05-06 23:22 40.84680 16.56055 39994 ft 432 kts 284°
2026-05-06 23:22 40.86444 16.48508 39994 ft 432 kts 284°
2026-05-06 23:23 40.88216 16.40904 39993 ft 432 kts 284°
2026-05-06 23:23 40.89981 16.33301 40008 ft 432 kts 284°
2026-05-06 23:24 40.91744 16.25681 40011 ft 433 kts 284°
2026-05-06 23:24 40.93490 16.18109 40013 ft 433 kts 284°
2026-05-06 23:25 40.95245 16.10474 40026 ft 434 kts 284°
2026-05-06 23:25 40.96728 16.02760 40026 ft 432 kts 279°
2026-05-06 23:26 40.97949 15.94988 40035 ft 431 kts 279°
2026-05-06 23:26 40.99190 15.87214 40027 ft 432 kts 279°
2026-05-06 23:27 41.00478 15.79446 40022 ft 432 kts 279°
2026-05-06 23:27 41.01781 15.71675 40031 ft 432 kts 279°
2026-05-06 23:28 41.03078 15.63955 40046 ft 432 kts 279°
2026-05-06 23:28 41.04376 15.56161 40026 ft 433 kts 279°
2026-05-06 23:29 41.05667 15.48365 40025 ft 433 kts 279°
2026-05-06 23:29 41.06955 15.40552 40027 ft 434 kts 279°
2026-05-06 23:30 41.08238 15.32744 40032 ft 433 kts 279°
2026-05-06 23:30 41.09514 15.24934 40028 ft 433 kts 279°
2026-05-06 23:31 41.10779 15.17173 40031 ft 434 kts 279°
2026-05-06 23:31 41.12063 15.09350 40032 ft 434 kts 279°
2026-05-06 23:32 41.13350 15.01513 40032 ft 434 kts 279°
2026-05-06 23:32 41.14413 14.95009 40032 ft 434 kts 279°
2026-05-06 23:33 41.15686 14.87185 40033 ft 434 kts 279°
2026-05-06 23:33 41.16430 14.82576 40034 ft 434 kts 279°
2026-05-06 23:34 41.17650 14.74733 40035 ft 434 kts 278°
2026-05-06 23:34 41.18856 14.66883 39872 ft 433 kts 278°
2026-05-06 23:34 41.19462 14.62977 39638 ft 429 kts 279°
2026-05-06 23:35 41.20065 14.59155 39409 ft 428 kts 279°
2026-05-06 23:35 41.20675 14.55285 39183 ft 428 kts 279°
2026-05-06 23:35 41.21285 14.51406 38956 ft 428 kts 279°
2026-05-06 23:35 41.21893 14.47536 38734 ft 428 kts 278°
2026-05-06 23:36 41.22499 14.43676 38356 ft 425 kts 278°
2026-05-06 23:36 41.23101 14.39827 37854 ft 424 kts 278°
2026-05-06 23:36 41.23700 14.35989 37352 ft 424 kts 278°
2026-05-06 23:36 41.24297 14.32152 36837 ft 423 kts 277°
2026-05-06 23:37 41.24890 14.28327 36306 ft 423 kts 277°
2026-05-06 23:37 41.25484 14.24491 35774 ft 423 kts 276°
2026-05-06 23:37 41.26076 14.20654 35219 ft 425 kts 276°
2026-05-06 23:37 41.26662 14.16842 34604 ft 427 kts 276°
2026-05-06 23:38 41.27257 14.12956 33862 ft 431 kts 275°
2026-05-06 23:38 41.27856 14.09026 33057 ft 435 kts 276°
2026-05-06 23:38 41.28458 14.05070 32260 ft 439 kts 276°
2026-05-06 23:38 41.29093 14.01081 31449 ft 444 kts 279°
2026-05-06 23:39 41.30094 13.97147 30647 ft 455 kts 289°
2026-05-06 23:39 41.31612 13.93446 30077 ft 456 kts 296°
2026-05-06 23:39 41.33319 13.89891 29426 ft 454 kts 298°
2026-05-06 23:39 41.35082 13.86418 28814 ft 450 kts 299°
2026-05-06 23:40 41.36857 13.83005 28237 ft 446 kts 299°
2026-05-06 23:40 41.38623 13.79635 27638 ft 442 kts 299°
2026-05-06 23:40 41.40369 13.76291 27026 ft 437 kts 299°
2026-05-06 23:40 41.42092 13.72969 26440 ft 433 kts 299°
2026-05-06 23:41 41.43684 13.69598 25854 ft 425 kts 292°
2026-05-06 23:41 41.44712 13.65963 25278 ft 414 kts 280°
2026-05-06 23:41 41.45304 13.62278 24748 ft 409 kts 277°
2026-05-06 23:41 41.45806 13.58559 24179 ft 406 kts 276°
2026-05-06 23:42 41.46283 13.54868 23625 ft 403 kts 276°
2026-05-06 23:42 41.46751 13.51205 23009 ft 399 kts 276°
2026-05-06 23:42 41.47215 13.47553 22460 ft 396 kts 276°
2026-05-06 23:42 41.47668 13.43952 21868 ft 398 kts 276°
2026-05-06 23:43 41.48127 13.40317 21112 ft 398 kts 276°
2026-05-06 23:43 41.48584 13.36676 20408 ft 397 kts 277°
2026-05-06 23:43 41.49037 13.33056 19941 ft 391 kts 276°
2026-05-06 23:43 41.49479 13.29531 19652 ft 380 kts 276°
2026-05-06 23:44 41.49911 13.26069 19212 ft 374 kts 276°
2026-05-06 23:44 41.50334 13.22654 18706 ft 372 kts 276°
2026-05-06 23:44 41.50757 13.19234 18166 ft 371 kts 276°
2026-05-06 23:44 41.51175 13.15849 17677 ft 366 kts 276°
2026-05-06 23:45 41.51578 13.12594 17544 ft 352 kts 276°
2026-05-06 23:45 41.51970 13.09425 17417 ft 340 kts 276°
2026-05-06 23:45 41.52347 13.06353 17271 ft 329 kts 276°
2026-05-06 23:45 41.52712 13.03377 17136 ft 318 kts 276°
2026-05-06 23:46 41.53064 13.00493 16996 ft 310 kts 276°
2026-05-06 23:46 41.53401 12.97723 16814 ft 305 kts 276°
2026-05-06 23:46 41.53743 12.94946 16422 ft 301 kts 277°
2026-05-06 23:46 41.54340 12.92309 16041 ft 298 kts 291°
2026-05-06 23:47 41.55555 12.90024 15864 ft 308 kts 309°
2026-05-06 23:47 41.57107 12.88001 15807 ft 314 kts 312°
2026-05-06 23:47 41.58710 12.86026 15733 ft 312 kts 313°
2026-05-06 23:47 41.60300 12.84068 15448 ft 311 kts 312°
2026-05-06 23:48 41.61886 12.82104 15147 ft 310 kts 312°
2026-05-06 23:48 41.63464 12.80141 14892 ft 308 kts 312°
2026-05-06 23:48 41.65026 12.78193 14709 ft 307 kts 312°
2026-05-06 23:48 41.66589 12.76239 14524 ft 306 kts 312°
2026-05-06 23:49 41.68149 12.74293 14344 ft 307 kts 313°
2026-05-06 23:49 41.69703 12.72347 14144 ft 305 kts 312°
2026-05-06 23:49 41.71255 12.70397 13954 ft 307 kts 313°
2026-05-06 23:49 41.72798 12.68457 13772 ft 308 kts 313°
2026-05-06 23:50 41.74353 12.66505 13546 ft 306 kts 313°
2026-05-06 23:50 41.77437 12.62630 13308 ft 298 kts 313°
2026-05-06 23:50 41.78934 12.60748 13167 ft 291 kts 313°
2026-05-06 23:51 41.80391 12.58914 13046 ft 285 kts 313°
2026-05-06 23:51 41.81814 12.57079 12847 ft 281 kts 311°
2026-05-06 23:51 41.83183 12.55219 12626 ft 280 kts 310°
2026-05-06 23:51 41.84553 12.53343 12425 ft 285 kts 310°
2026-05-06 23:52 41.85938 12.51456 12340 ft 280 kts 310°
2026-05-06 23:52 41.87282 12.49637 12226 ft 275 kts 311°
2026-05-06 23:52 41.88631 12.47811 11990 ft 276 kts 311°
2026-05-06 23:52 41.90138 12.46200 11724 ft 280 kts 328°
2026-05-06 23:53 41.91962 12.45225 11539 ft 281 kts 339°
2026-05-06 23:53 41.93818 12.44463 11421 ft 275 kts 340°
2026-05-06 23:53 41.95652 12.43724 11206 ft 275 kts 340°
2026-05-06 23:53 41.97453 12.42991 11013 ft 273 kts 340°
2026-05-06 23:54 41.99260 12.42250 10751 ft 269 kts 340°
2026-05-06 23:54 42.01038 12.41516 10306 ft 266 kts 340°
2026-05-06 23:54 42.02809 12.40781 9815 ft 266 kts 340°
2026-05-06 23:54 42.04568 12.40051 9300 ft 264 kts 339°
2026-05-06 23:55 42.06315 12.39324 8767 ft 261 kts 339°
2026-05-06 23:55 42.08043 12.38605 8238 ft 259 kts 339°
2026-05-06 23:55 42.09756 12.37890 7766 ft 255 kts 340°
2026-05-06 23:55 42.11444 12.37186 7255 ft 253 kts 340°
2026-05-06 23:56 42.13093 12.36500 6808 ft 249 kts 340°
2026-05-06 23:56 42.14742 12.35809 6341 ft 246 kts 339°
2026-05-06 23:56 42.16379 12.35120 6045 ft 248 kts 339°
2026-05-06 23:56 42.18027 12.34426 5993 ft 248 kts 340°
2026-05-06 23:57 42.19667 12.33741 5977 ft 247 kts 339°
2026-05-06 23:57 42.21301 12.33043 5772 ft 243 kts 338°
2026-05-06 23:57 42.22762 12.32009 5629 ft 232 kts 318°
2026-05-06 23:57 42.23797 12.30435 5473 ft 219 kts 294°
2026-05-06 23:58 42.24202 12.28527 5309 ft 210 kts 269°
2026-05-06 23:58 42.23830 12.26680 5044 ft 205 kts 234°
2026-05-06 23:58 42.22776 12.25414 4824 ft 205 kts 212°
2026-05-06 23:58 42.21549 12.24446 4564 ft 203 kts 210°
2026-05-06 23:59 42.20330 12.23512 4376 ft 199 kts 211°
2026-05-06 23:59 42.19125 12.22569 4085 ft 201 kts 210°
2026-05-06 23:59 42.17916 12.21608 3995 ft 202 kts 211°
2026-05-06 23:59 42.16727 12.20644 3988 ft 201 kts 211°
2026-05-07 00:00 42.15534 12.19664 3986 ft 202 kts 211°
2026-05-07 00:00 42.14316 12.18714 3955 ft 203 kts 203°
2026-05-07 00:00 42.12932 12.18279 3843 ft 207 kts 191°
2026-05-07 00:00 42.11976 12.18072 3633 ft 209 kts 189°
2026-05-07 00:01 42.10091 12.17631 3420 ft 203 kts 191°
2026-05-07 00:01 42.08703 12.17266 3261 ft 201 kts 192°
2026-05-07 00:01 42.07352 12.17033 3114 ft 198 kts 180°
2026-05-07 00:01 42.05984 12.17244 2928 ft 199 kts 169°
2026-05-07 00:02 42.04644 12.17736 2738 ft 199 kts 164°
2026-05-07 00:02 42.03322 12.18297 2563 ft 200 kts 163°
2026-05-07 00:02 42.01996 12.18861 2506 ft 199 kts 164°
2026-05-07 00:02 42.00705 12.19407 2469 ft 189 kts 164°
2026-05-07 00:03 41.99497 12.19917 2473 ft 175 kts 164°
2026-05-07 00:03 41.98383 12.20388 2502 ft 159 kts 163°
2026-05-07 00:03 41.97385 12.20807 2499 ft 142 kts 163°
2026-05-07 00:03 41.96456 12.21195 2474 ft 140 kts 164°
2026-05-07 00:04 41.95539 12.21575 2337 ft 134 kts 164°
2026-05-07 00:04 41.94667 12.21936 2151 ft 130 kts 164°
2026-05-07 00:04 41.93810 12.22295 1974 ft 129 kts 163°
2026-05-07 00:04 41.92957 12.22653 1797 ft 129 kts 163°
2026-05-07 00:05 41.92104 12.23011 1615 ft 128 kts 163°
2026-05-07 00:05 41.91247 12.23370 1441 ft 129 kts 162°
2026-05-07 00:05 41.90393 12.23728 1272 ft 128 kts 162°
2026-05-07 00:05 41.89543 12.24085 1094 ft 127 kts 164°
2026-05-07 00:06 41.88706 12.24434 922 ft 127 kts 162°
2026-05-07 00:06 41.87862 12.24787 751 ft 127 kts 162°
2026-05-07 00:06 41.87025 12.25123 548 ft 123 kts 161°
2026-05-07 00:06 41.86196 12.25478 377 ft 126 kts 159°
2026-05-07 00:07 41.85358 12.25823 222 ft 127 kts 160°
2026-05-07 00:07 41.84531 12.26178 68 ft 124 kts 158°
2026-05-07 00:07 41.83749 12.26508 22 ft 99 kts 163°
2026-05-07 00:07 41.83260 12.26708 15 ft 46 kts 162°
2026-05-07 00:08 41.83024 12.26806 16 ft 32 kts 163°
2026-05-07 00:08 41.82825 12.26867 17 ft 27 kts 174°
2026-05-07 00:08 41.82641 12.26850 15 ft 26 kts 191°
2026-05-07 00:08 41.82464 12.26797 15 ft 26 kts 192°
2026-05-07 00:09 41.82283 12.26801 15 ft 26 kts 166°
2026-05-07 00:09 41.82110 12.26868 15 ft 26 kts 162°
2026-05-07 00:09 41.81939 12.26941 15 ft 25 kts 162°
2026-05-07 00:09 41.81775 12.27009 16 ft 24 kts 163°
2026-05-07 00:10 41.81616 12.27074 16 ft 23 kts 163°
2026-05-07 00:10 41.81469 12.27135 16 ft 21 kts 162°
2026-05-07 00:10 41.81340 12.27190 16 ft 18 kts 162°
2026-05-07 00:10 41.81224 12.27238 16 ft 18 kts 163°
2026-05-07 00:11 41.81103 12.27290 16 ft 18 kts 162°
2026-05-07 00:11 41.80982 12.27341 17 ft 18 kts 165°
2026-05-07 00:11 41.80862 12.27343 17 ft 17 kts 187°
2026-05-07 00:11 41.80746 12.27315 17 ft 17 kts 191°
2026-05-07 00:12 41.80659 12.27232 17 ft 15 kts 242°
2026-05-07 00:12 41.80619 12.27102 17 ft 15 kts 248°
2026-05-07 00:12 41.80583 12.26969 17 ft 16 kts 252°
2026-05-07 00:12 41.80547 12.26824 18 ft 17 kts 251°
2026-05-07 00:13 41.80507 12.26672 19 ft 18 kts 250°
2026-05-07 00:13 41.80461 12.26528 19 ft 16 kts 249°
2026-05-07 00:13 41.80446 12.26470 20 ft 0 kts 251°
2026-05-07 00:14 41.80443 12.26458 22 ft 4 kts 252°
2026-05-07 00:15 41.80424 12.26381 19 ft 13 kts 251°
2026-05-07 00:15 41.80385 12.26239 19 ft 17 kts 249°
2026-05-07 00:15 41.80343 12.26090 18 ft 17 kts 249°
2026-05-07 00:15 41.80302 12.25943 18 ft 16 kts 250°
2026-05-07 00:16 41.80264 12.25806 18 ft 15 kts 249°
2026-05-07 00:16 41.80228 12.25677 20 ft 14 kts 250°
2026-05-07 00:16 41.80196 12.25558 18 ft 13 kts 250°
2026-05-07 00:16 41.80166 12.25450 18 ft 12 kts 250°
2026-05-07 00:17 41.80138 12.25349 18 ft 11 kts 250°
2026-05-07 00:17 41.80112 12.25255 18 ft 11 kts 249°
2026-05-07 00:17 41.80064 12.25209 18 ft 8 kts 181°
2026-05-07 00:17 41.80013 12.25219 18 ft 7 kts 169°
2026-05-07 00:18 41.79976 12.25230 18 ft 0 kts 167°
2026-05-07 00:18 41.79970 12.25232 18 ft 2 kts 167°
2026-05-07 00:18 41.79966 12.25233 18 ft 1 kts 167°
2026-05-07 00:18 41.79961 12.25235 18 ft 0 kts 167°